Location: Hackberry
(29.5783°N, 96.8797°W)
Time: 13:42:22
(UTC+00:00)

Transit 2A - Pass Details

Date: 10 November 2024
Orbit: 592 x 956 km, 66.7° (Epoch: 02 December)

Event Time Altitude Azimuth Distance (km) Brightness Sun altitude
Exits shadow 10:21:01 18° 177° (S) 2,118 8.3 -32.1°
Maximum altitude 10:25:27 49° 109° (ESE) 1,206 7.2 -31.2°
Drops below altitude 10° 10:31:30 10° 37° (NE) 2,687 9.2 -29.9°
Sets 10:34:09 0° 32° (NNE) 3,626 9.8 -29.3°
